Regional Weather Roundup
Issued by NWS Midland/Odessa, TX

Current Version | Previous Version | Text Only | Print | Product List | Glossary On
Versions: 1 2 3 4 5 6 7 8 9 10 11 12 13 14 15 16 17 18 19 20 21 22 23 24 25 26 27 28 29 30 31 32 33 34 35 36 37 38 39 40 41 42 43 44 45 46 47 48 49 50
000
ASUS44 KMAF 280710
RWRMAF
MIDLAND AREA WEATHER ROUNDUP
NATIONAL WEATHER SERVICE MIDLAND TX
200 AM CDT WED SEP 28 2016

...IN SOUTHWEST TEXAS AND SOUTHEAST NEW MEXICO...

CITY           SKY/WX    TMP DP  RH WIND       PRES   REMARKS
ALPINE         PTCLDY    55  53  95 SW5       30.27S
ANDREWS        FAIR      61  50  66 W7        30.15F
ARTESIA        CLEAR     57  54  88 CALM      30.16S
BIG SPRING     CLEAR     58  48  71 SE7       30.14F
CARLSBAD       CLEAR     60  52  74 SW6       30.13F
DRYDEN         NOT AVBL
FORT STOCKTON  MOCLDY    60  55  83 S7        30.14F
GUAD PASS      CLOUDY    61  51  70 SW3       30.25F
HOBBS          CLEAR     54  54 100 W6        30.17F
MARFA          CLOUDY   N/A N/A N/A N6        30.25S
MIDLAND AIRPK  CLEAR     61  49  65 W5        30.14S
MIDLAND INTL   CLEAR     59  52  77 CALM      30.14F
ODESSA         CLEAR     60  51  72 CALM      30.15F
PECOS          PTCLDY    60  57  92 CALM      30.12F
PRESIDIO       CLOUDY    66  59  79 N3        30.16S
SEMINOLE       CLEAR     55  49  79 CALM      30.16F
SNYDER           N/A     57  47  70 W6        30.12S
WINK           CLEAR     61  55  81 W3        30.12F
$$
...OTHER STATIONS IN TEXAS...

CITY           SKY/WX    TMP DP  RH WIND       PRES   REMARKS
ABILENE        CLOUDY    56  51  84 S5        30.08F
AMARILLO       CLOUDY    53  41  63 SW10      30.12S
AUSTIN         CLEAR     64  63  96 CALM      30.03F
BROWNSVILLE    LGT RAIN  74  71  91 NW7       29.98F
CORPUS CHRISTI PTCLDY    73  69  87 N8        30.00S
DALLAS FTW     CLOUDY    61  51  70 CALM      30.02S
DEL RIO        CLEAR     65  61  87 CALM      30.06F
EL PASO        MOCLDY    63  50  62 S5        30.16S
HOUSTON INT    PTCLDY    71  65  81 N6        30.00F
LUBBOCK        PTCLDY    54  44  69 W6        30.13S
SAN ANGELO     CLEAR     58  54  86 W5        30.10S
SAN ANTONIO    PTCLDY    66  63  90 NW3       30.05S
WACO           CLEAR     59  58  96 CALM      30.03F
WICHITA FALLS  NOT AVBL
$$
...OTHER LOCATIONS IN NEW MEXICO...

CITY           SKY/WX    TMP DP  RH WIND       PRES   REMARKS
ALAMAGORDO     CLEAR     57  48  72 NE5       30.19S
ALBUQUERQUE    CLEAR     61  41  47 CALM      30.23S
CANNON AFB     NOT AVBL
CLOVIS         CLEAR     52  39  62 W5        30.16F
HOLLOMAN AFB   CLEAR     62  51  69 VRB1      30.16S
ROSWELL        CLEAR     54  46  74 S3        30.15F
RUIDOSO        CLOUDY    54  37  54 W6        30.33S
SANTA FE       CLEAR     47  33  58 N6        30.28S
TRUTH OR CONSE CLOUDY    62  51  67 W5        30.21R
TUCUMCARI      CLOUDY    55  35  47 CALM      30.14R
$$




USA.gov is the U.S. government's official web portal to all federal, state and local government web resources and services.